Time,TemperatureF,DewpointF,PressureIn,WindDirection,WindDirectionDegrees,WindSpeedMPH,WindSpeedGustMPH,Humidity,HourlyPrecipIn,Conditions,Clouds,dailyrainin,SoftwareType,DateUTC
2013-05-06 00:01:00,46.9,43.0,30.19,ESE,110,0.0,2.0,86,0.00,CLR,,0.00,WeatherDisplay:10.37,2013-05-06 04:01:00,
2013-05-06 00:06:00,46.9,43.0,30.19,SE,130,0.0,2.0,86,0.00,CLR,,0.00,WeatherDisplay:10.37,2013-05-06 04:06:00,
2013-05-06 00:11:00,46.8,43.1,30.19,SE,135,0.0,2.0,87,0.00,CLR,,0.00,WeatherDisplay:10.37,2013-05-06 04:11:00,
2013-05-06 00:16:00,46.6,42.9,30.19,SSE,163,0.0,2.0,87,0.00,CLR,,0.00,WeatherDisplay:10.37,2013-05-06 04:16:00,
2013-05-06 00:21:00,46.6,42.9,30.19,SSE,155,1.0,2.0,87,0.00,CLR,,0.00,WeatherDisplay:10.37,2013-05-06 04:21:00,
2013-05-06 00:26:00,46.6,42.9,30.19,ESE,103,1.0,2.0,87,0.00,CLR,,0.00,WeatherDisplay:10.37,2013-05-06 04:26:00,
2013-05-06 00:31:00,46.8,43.4,30.19,East,91,1.0,2.0,88,0.00,CLR,,0.00,WeatherDisplay:10.37,2013-05-06 04:31:00,
2013-05-06 00:40:00,46.8,43.4,30.19,East,90,0.0,2.0,88,0.00,CLR,,0.00,WeatherDisplay:10.37,2013-05-06 04:40:00,
2013-05-06 00:45:00,46.6,43.2,30.18,East,90,0.0,2.0,88,0.00,CLR,,0.00,WeatherDisplay:10.37,2013-05-06 04:45:00,
2013-05-06 00:50:00,46.6,43.2,30.19,East,90,0.0,1.0,88,0.00,CLR,,0.00,WeatherDisplay:10.37,2013-05-06 04:50:00,
2013-05-06 00:56:00,46.4,43.3,30.19,East,90,0.0,1.0,89,0.00,CLR,,0.00,WeatherDisplay:10.37,2013-05-06 04:56:00,
2013-05-06 01:01:00,46.4,43.3,30.18,East,90,0.0,1.0,89,0.00,CLR,,0.00,WeatherDisplay:10.37,2013-05-06 05:01:00,
2013-05-06 01:06:00,46.4,43.3,30.18,East,90,0.0,1.0,89,0.00,CLR,,0.00,WeatherDisplay:10.37,2013-05-06 05:06:00,
2013-05-06 01:11:00,46.2,43.4,30.18,East,90,0.0,2.0,90,0.00,CLR,,0.00,WeatherDisplay:10.37,2013-05-06 05:11:00,
2013-05-06 01:16:00,46.2,43.4,30.18,East,90,1.0,2.0,90,0.00,CLR,,0.00,WeatherDisplay:10.37,2013-05-06 05:16:00,
2013-05-06 01:21:00,46.2,43.7,30.18,East,90,0.0,2.0,91,0.00,CLR,,0.00,WeatherDisplay:10.37,2013-05-06 05:21:00,
2013-05-06 01:26:00,46.2,43.7,30.18,East,90,0.0,2.0,91,0.00,CLR,,0.00,WeatherDisplay:10.37,2013-05-06 05:26:00,
2013-05-06 01:31:00,46.4,43.6,30.18,East,85,1.0,3.0,90,0.00,CLR,,0.00,WeatherDisplay:10.37,2013-05-06 05:31:00,
2013-05-06 01:36:00,46.4,43.9,30.18,ENE,75,1.0,3.0,91,0.00,BKN,,0.00,WeatherDisplay:10.37,2013-05-06 05:36:00,
2013-05-06 01:41:00,46.6,44.1,30.18,ENE,61,0.0,2.0,91,0.00,BKN,,0.00,WeatherDisplay:10.37,2013-05-06 05:41:00,
2013-05-06 01:46:00,46.9,44.7,30.18,ENE,66,0.0,2.0,92,0.00,BKN,,0.00,WeatherDisplay:10.37,2013-05-06 05:46:00,
2013-05-06 01:51:00,46.9,44.7,30.17,East,83,1.0,2.0,92,0.00,BKN,,0.00,WeatherDisplay:10.37,2013-05-06 05:51:00,
2013-05-06 01:56:00,47.1,44.9,30.17,ENE,77,1.0,2.0,92,0.00,BKN,,0.00,WeatherDisplay:10.37,2013-05-06 05:56:00,
2013-05-06 02:01:00,47.3,45.1,30.17,ENE,57,0.0,2.0,92,0.00,BKN,,0.00,WeatherDisplay:10.37,2013-05-06 06:01:00,
2013-05-06 02:06:00,47.3,45.1,30.17,NE,45,0.0,1.0,92,0.00,OVC,,0.00,WeatherDisplay:10.37,2013-05-06 06:06:00,
2013-05-06 02:11:00,47.7,45.5,30.17,NE,49,1.0,2.0,92,0.00,OVC,,0.00,WeatherDisplay:10.37,2013-05-06 06:11:00,
2013-05-06 02:16:00,47.7,45.5,30.17,NE,51,1.0,2.0,92,0.00,OVC,,0.00,WeatherDisplay:10.37,2013-05-06 06:16:00,
2013-05-06 02:21:00,47.7,45.2,30.17,NE,45,0.0,2.0,91,0.00,OVC,,0.00,WeatherDisplay:10.37,2013-05-06 06:21:00,
2013-05-06 02:27:00,47.5,45.0,30.17,ESE,104,1.0,2.0,91,0.00,OVC,,0.00,WeatherDisplay:10.37,2013-05-06 06:27:00,
2013-05-06 02:32:00,47.5,45.0,30.17,SE,137,0.0,3.0,91,0.00,OVC,,0.00,WeatherDisplay:10.37,2013-05-06 06:32:00,
2013-05-06 02:37:00,47.3,44.8,30.17,ESE,120,0.0,2.0,91,0.00,OVC,,0.00,WeatherDisplay:10.37,2013-05-06 06:37:00,
2013-05-06 02:42:00,47.3,45.1,30.17,ESE,108,0.0,2.0,92,0.00,OVC,,0.00,WeatherDisplay:10.37,2013-05-06 06:42:00,
2013-05-06 02:47:00,47.3,45.1,30.17,ENE,65,0.0,2.0,92,0.00,OVC,,0.00,WeatherDisplay:10.37,2013-05-06 06:47:00,
2013-05-06 02:55:00,47.6,45.3,30.17,NNE,26,0.0,2.0,92,0.00,OVC,,0.00,WeatherDisplay:10.37,2013-05-06 06:55:00,
2013-05-06 03:00:00,47.7,45.5,30.17,SSE,159,0.0,1.0,92,0.00,OVC,,0.00,WeatherDisplay:10.37,2013-05-06 07:00:00,
2013-05-06 03:05:00,47.7,45.5,30.17,South,187,0.0,1.0,92,0.00,OVC,,0.00,WeatherDisplay:10.37,2013-05-06 07:05:00,
2013-05-06 03:11:00,47.8,45.6,30.17,ENE,71,0.0,2.0,92,0.00,OVC,,0.00,WeatherDisplay:10.37,2013-05-06 07:11:00,
2013-05-06 03:16:00,47.9,45.7,30.17,NE,46,1.0,2.0,92,0.00,OVC,,0.00,WeatherDisplay:10.37,2013-05-06 07:16:00,
2013-05-06 03:21:00,48.2,45.7,30.17,NE,37,0.0,2.0,91,0.00,OVC,,0.00,WeatherDisplay:10.37,2013-05-06 07:21:00,
2013-05-06 03:26:00,48.2,45.7,30.17,NNE,32,0.0,2.0,91,0.00,OVC,,0.00,WeatherDisplay:10.37,2013-05-06 07:26:00,
2013-05-06 03:31:00,48.2,45.7,30.17,NE,41,1.0,2.0,91,0.00,OVC,,0.00,WeatherDisplay:10.37,2013-05-06 07:31:00,
2013-05-06 03:36:00,48.2,45.7,30.16,NE,54,0.0,2.0,91,0.00,OVC,,0.00,WeatherDisplay:10.37,2013-05-06 07:36:00,
2013-05-06 03:41:00,48.4,45.6,30.17,NE,45,0.0,2.0,90,0.00,OVC,,0.00,WeatherDisplay:10.37,2013-05-06 07:41:00,
2013-05-06 03:46:00,48.4,45.6,30.17,NE,43,0.0,2.0,90,0.00,OVC,,0.00,WeatherDisplay:10.37,2013-05-06 07:46:00,
2013-05-06 03:51:00,48.4,45.6,30.17,NE,50,1.0,2.0,90,0.00,OVC,,0.00,WeatherDisplay:10.37,2013-05-06 07:51:00,
2013-05-06 03:56:00,48.4,45.6,30.16,NE,52,1.0,2.0,90,0.00,OVC,,0.00,WeatherDisplay:10.37,2013-05-06 07:56:00,
2013-05-06 04:01:00,48.4,45.6,30.16,ENE,59,1.0,2.0,90,0.00,OVC,,0.00,WeatherDisplay:10.37,2013-05-06 08:01:00,
2013-05-06 04:06:00,48.4,45.6,30.16,East,81,1.0,2.0,90,0.00,OVC,,0.00,WeatherDisplay:10.37,2013-05-06 08:06:00,
2013-05-06 04:11:00,48.4,45.6,30.16,ENE,74,1.0,2.0,90,0.00,OVC,,0.00,WeatherDisplay:10.37,2013-05-06 08:11:00,
2013-05-06 04:16:00,48.2,45.4,30.16,ENE,64,1.0,2.0,90,0.00,OVC,,0.00,WeatherDisplay:10.37,2013-05-06 08:16:00,
2013-05-06 04:21:00,48.2,45.4,30.17,ENE,72,1.0,2.0,90,0.00,OVC,,0.00,WeatherDisplay:10.37,2013-05-06 08:21:00,
2013-05-06 04:26:00,48.2,45.4,30.16,ENE,60,2.0,4.0,90,0.00,OVC,,0.00,WeatherDisplay:10.37,2013-05-06 08:26:00,
2013-05-06 04:31:00,48.0,45.5,30.16,NE,54,2.0,3.0,91,0.00,OVC,,0.00,WeatherDisplay:10.37,2013-05-06 08:31:00,
2013-05-06 04:36:00,48.0,45.4,30.16,ENE,72,1.0,3.0,91,0.00,OVC,,0.00,WeatherDisplay:10.37,2013-05-06 08:36:00,
2013-05-06 04:41:00,47.8,45.3,30.16,ENE,72,1.0,3.0,91,0.00,OVC,,0.00,WeatherDisplay:10.37,2013-05-06 08:41:00,
2013-05-06 04:46:00,47.8,45.3,30.16,NE,55,2.0,3.0,91,0.00,OVC,,0.00,WeatherDisplay:10.37,2013-05-06 08:46:00,
2013-05-06 04:55:00,47.8,45.3,30.16,NE,48,1.0,2.0,91,0.00,OVC,,0.00,WeatherDisplay:10.37,2013-05-06 08:55:00,
2013-05-06 05:00:00,48.0,45.5,30.16,ENE,57,2.0,3.0,91,0.00,OVC,,0.00,WeatherDisplay:10.37,2013-05-06 09:00:00,
2013-05-06 05:05:00,48.0,45.8,30.16,ENE,59,1.0,3.0,92,0.00,OVC,,0.00,WeatherDisplay:10.37,2013-05-06 09:05:00,
2013-05-06 05:11:00,48.0,45.8,30.16,ENE,70,1.0,2.0,92,0.00,OVC,,0.00,WeatherDisplay:10.37,2013-05-06 09:11:00,
2013-05-06 05:16:00,48.0,45.8,30.16,ENE,72,1.0,3.0,92,0.00,OVC,,0.00,WeatherDisplay:10.37,2013-05-06 09:16:00,
2013-05-06 05:21:00,48.0,45.8,30.16,East,80,1.0,3.0,92,0.00,OVC,,0.00,WeatherDisplay:10.37,2013-05-06 09:21:00,
2013-05-06 05:26:00,48.0,45.8,30.16,ENE,71,0.0,2.0,92,0.00,OVC,,0.00,WeatherDisplay:10.37,2013-05-06 09:26:00,
2013-05-06 05:31:00,48.0,45.8,30.16,ENE,68,1.0,3.0,92,0.00,OVC,,0.00,WeatherDisplay:10.37,2013-05-06 09:31:00,
2013-05-06 05:36:00,48.0,45.8,30.16,ENE,75,1.0,2.0,92,0.00,OVC,,0.00,WeatherDisplay:10.37,2013-05-06 09:36:00,
2013-05-06 05:41:00,48.0,45.8,30.16,ENE,66,0.0,3.0,92,0.00,OVC,,0.00,WeatherDisplay:10.37,2013-05-06 09:41:00,
2013-05-06 05:46:00,48.0,45.8,30.17,ENE,67,1.0,5.0,92,0.00,OVC,,0.00,WeatherDisplay:10.37,2013-05-06 09:46:00,
2013-05-06 05:51:00,48.0,45.8,30.17,ENE,62,2.0,3.0,92,0.00,OVC,,0.00,WeatherDisplay:10.37,2013-05-06 09:51:00,
2013-05-06 05:56:00,48.0,45.5,30.17,ENE,60,2.0,3.0,91,0.00,OVC,,0.00,WeatherDisplay:10.37,2013-05-06 09:56:00,
2013-05-06 06:06:00,47.8,45.3,30.17,NE,52,1.0,3.0,91,0.00,OVC,,0.00,WeatherDisplay:10.37,2013-05-06 10:06:00,
2013-05-06 06:11:00,47.8,45.0,30.17,NE,56,2.0,4.0,90,0.00,OVC,,0.00,WeatherDisplay:10.37,2013-05-06 10:11:00,
2013-05-06 06:16:00,47.8,45.0,30.17,East,80,1.0,3.0,90,0.00,OVC,,0.00,WeatherDisplay:10.37,2013-05-06 10:16:00,
2013-05-06 06:21:00,47.8,45.0,30.17,ENE,69,1.0,6.0,90,0.00,OVC,,0.00,WeatherDisplay:10.37,2013-05-06 10:21:00,
2013-05-06 06:26:00,47.8,45.0,30.18,ENE,62,1.0,4.0,90,0.00,OVC,,0.00,WeatherDisplay:10.37,2013-05-06 10:26:00,
2013-05-06 06:35:00,47.8,45.0,30.18,East,97,1.0,4.0,90,0.00,OVC,,0.00,WeatherDisplay:10.37,2013-05-06 10:35:00,
2013-05-06 06:40:00,47.8,44.8,30.18,East,96,2.0,5.0,89,0.00,OVC,,0.00,WeatherDisplay:10.37,2013-05-06 10:40:00,
2013-05-06 06:45:00,47.8,44.8,30.19,ENE,74,1.0,5.0,89,0.00,OVC,,0.00,WeatherDisplay:10.37,2013-05-06 10:45:00,
2013-05-06 06:51:00,48.0,44.9,30.18,ENE,65,2.0,6.0,89,0.00,OVC,,0.00,WeatherDisplay:10.37,2013-05-06 10:51:00,
2013-05-06 06:56:00,48.0,44.9,30.19,NE,48,2.0,5.0,89,0.00,OVC,,0.00,WeatherDisplay:10.37,2013-05-06 10:56:00,
2013-05-06 07:01:00,48.2,44.8,30.19,ENE,57,0.0,5.0,88,0.00,OVC,,0.00,WeatherDisplay:10.37,2013-05-06 11:01:00,
2013-05-06 07:06:00,48.2,44.8,30.19,ENE,71,0.0,2.0,88,0.00,OVC,,0.00,WeatherDisplay:10.37,2013-05-06 11:06:00,
2013-05-06 07:11:00,48.4,45.0,30.19,East,89,2.0,4.0,88,0.00,OVC,,0.00,WeatherDisplay:10.37,2013-05-06 11:11:00,
2013-05-06 07:16:00,48.6,45.2,30.19,ENE,70,1.0,4.0,88,0.00,OVC,,0.00,WeatherDisplay:10.37,2013-05-06 11:16:00,
2013-05-06 07:21:00,48.7,45.3,30.19,ENE,67,1.0,5.0,88,0.00,OVC,,0.00,WeatherDisplay:10.37,2013-05-06 11:21:00,
2013-05-06 07:26:00,48.9,45.5,30.19,East,83,2.0,7.0,88,0.00,OVC,,0.00,WeatherDisplay:10.37,2013-05-06 11:26:00,
2013-05-06 07:31:00,49.1,45.4,30.19,East,85,1.0,5.0,87,0.00,OVC,,0.00,WeatherDisplay:10.37,2013-05-06 11:31:00,
2013-05-06 07:36:00,49.3,45.6,30.19,ENE,75,1.0,3.0,87,0.00,OVC,,0.00,WeatherDisplay:10.37,2013-05-06 11:36:00,
2013-05-06 07:41:00,49.6,45.9,30.19,NE,45,1.0,6.0,87,0.00,OVC,,0.00,WeatherDisplay:10.37,2013-05-06 11:41:00,
2013-05-06 07:46:00,50.0,46.0,30.19,ENE,67,0.0,4.0,86,0.00,OVC,,0.00,WeatherDisplay:10.37,2013-05-06 11:46:00,
2013-05-06 07:51:00,50.2,46.2,30.19,ENE,74,2.0,6.0,86,0.00,OVC,,0.00,WeatherDisplay:10.37,2013-05-06 11:51:00,
2013-05-06 07:56:00,50.4,46.4,30.20,ENE,77,3.0,5.0,86,0.00,OVC,,0.00,WeatherDisplay:10.37,2013-05-06 11:56:00,
2013-05-06 08:01:00,50.5,46.2,30.19,ENE,65,2.0,5.0,85,0.00,OVC,,0.00,WeatherDisplay:10.37,2013-05-06 12:01:00,
2013-05-06 08:06:00,50.7,46.4,30.19,NE,46,1.0,3.0,85,0.00,OVC,,0.00,WeatherDisplay:10.37,2013-05-06 12:06:00,
2013-05-06 08:11:00,50.9,46.6,30.19,ENE,68,2.0,4.0,85,0.00,OVC,,0.00,WeatherDisplay:10.37,2013-05-06 12:11:00,
2013-05-06 08:16:00,51.1,46.7,30.20,ENE,59,2.0,4.0,85,0.00,OVC,,0.00,WeatherDisplay:10.37,2013-05-06 12:16:00,
2013-05-06 08:21:00,51.4,47.0,30.20,ENE,63,2.0,4.0,85,0.00,OVC,,0.00,WeatherDisplay:10.37,2013-05-06 12:21:00,
2013-05-06 08:26:00,51.6,47.3,30.20,ENE,58,3.0,5.0,85,0.00,OVC,,0.00,WeatherDisplay:10.37,2013-05-06 12:26:00,
2013-05-06 08:32:00,51.8,46.8,30.20,NE,41,2.0,5.0,83,0.00,OVC,,0.00,WeatherDisplay:10.37,2013-05-06 12:32:00,
2013-05-06 08:37:00,52.1,47.1,30.21,NNE,33,1.0,5.0,83,0.00,OVC,,0.00,WeatherDisplay:10.37,2013-05-06 12:37:00,
2013-05-06 08:42:00,52.3,47.3,30.21,NE,52,2.0,6.0,83,0.00,OVC,,0.00,WeatherDisplay:10.37,2013-05-06 12:42:00,
2013-05-06 08:47:00,52.4,47.4,30.21,NE,45,1.0,4.0,83,0.00,OVC,,0.00,WeatherDisplay:10.37,2013-05-06 12:47:00,
2013-05-06 08:55:00,52.9,47.9,30.21,North,0,1.0,6.0,83,0.00,OVC,,0.00,WeatherDisplay:10.37,2013-05-06 12:55:00,
2013-05-06 09:00:00,53.2,48.2,30.20,North,10,2.0,5.0,83,0.00,OVC,,0.00,WeatherDisplay:10.37,2013-05-06 13:00:00,
2013-05-06 09:05:00,53.4,48.4,30.20,NNE,26,1.0,5.0,83,0.00,OVC,,0.00,WeatherDisplay:10.37,2013-05-06 13:05:00,
2013-05-06 09:10:00,53.6,47.9,30.20,NE,37,2.0,5.0,81,0.00,OVC,,0.00,WeatherDisplay:10.37,2013-05-06 13:10:00,
2013-05-06 09:16:00,54.0,48.3,30.20,NE,53,1.0,6.0,81,0.00,OVC,,0.00,WeatherDisplay:10.37,2013-05-06 13:16:00,
2013-05-06 09:21:00,54.2,48.5,30.20,ENE,68,1.0,4.0,81,0.00,OVC,,0.00,WeatherDisplay:10.37,2013-05-06 13:21:00,
2013-05-06 09:26:00,54.5,48.8,30.20,ENE,62,1.0,4.0,81,0.00,OVC,,0.00,WeatherDisplay:10.37,2013-05-06 13:26:00,
2013-05-06 09:31:00,54.8,49.1,30.20,ENE,65,2.0,5.0,81,0.00,OVC,,0.00,WeatherDisplay:10.37,2013-05-06 13:31:00,
2013-05-06 09:36:00,55.2,49.2,30.20,East,81,1.0,3.0,80,0.00,OVC,,0.00,WeatherDisplay:10.37,2013-05-06 13:36:00,
2013-05-06 09:41:00,55.7,49.3,30.20,NE,37,2.0,4.0,79,0.00,OVC,,0.00,WeatherDisplay:10.37,2013-05-06 13:41:00,
2013-05-06 09:46:00,56.1,49.4,30.20,NE,36,1.0,4.0,78,0.00,OVC,,0.00,WeatherDisplay:10.37,2013-05-06 13:46:00,
2013-05-06 09:51:00,56.7,49.9,30.20,ENE,59,1.0,6.0,78,0.00,OVC,,0.00,WeatherDisplay:10.37,2013-05-06 13:51:00,
2013-05-06 09:56:00,56.7,49.5,30.20,ENE,67,1.0,4.0,77,0.00,OVC,,0.00,WeatherDisplay:10.37,2013-05-06 13:56:00,
2013-05-06 10:01:00,57.0,49.9,30.20,NNE,30,1.0,3.0,77,0.00,OVC,,0.00,WeatherDisplay:10.37,2013-05-06 14:01:00,
2013-05-06 10:06:00,57.4,49.5,30.20,NE,49,3.0,6.0,75,0.00,OVC,,0.00,WeatherDisplay:10.37,2013-05-06 14:06:00,
2013-05-06 10:11:00,57.7,49.9,30.20,ENE,70,1.0,5.0,75,0.00,OVC,,0.00,WeatherDisplay:10.37,2013-05-06 14:11:00,
2013-05-06 10:16:00,57.9,50.1,30.20,East,83,1.0,4.0,75,0.00,OVC,,0.00,WeatherDisplay:10.37,2013-05-06 14:16:00,
2013-05-06 10:21:00,58.2,49.9,30.20,NE,52,1.0,3.0,74,0.00,OVC,,0.00,WeatherDisplay:10.37,2013-05-06 14:21:00,
2013-05-06 10:26:00,58.6,50.3,30.20,NE,54,2.0,4.0,74,0.00,OVC,,0.00,WeatherDisplay:10.37,2013-05-06 14:26:00,
2013-05-06 10:31:00,59.0,50.3,30.20,ENE,74,1.0,6.0,73,0.00,OVC,,0.00,WeatherDisplay:10.37,2013-05-06 14:31:00,
2013-05-06 10:36:00,59.2,50.2,30.20,NNE,28,2.0,4.0,72,0.00,OVC,,0.00,WeatherDisplay:10.37,2013-05-06 14:36:00,
2013-05-06 10:41:00,59.5,50.5,30.20,NNE,20,1.0,5.0,72,0.00,OVC,,0.00,WeatherDisplay:10.37,2013-05-06 14:41:00,
2013-05-06 10:46:00,59.7,50.7,30.20,NE,49,2.0,6.0,72,0.00,OVC,,0.00,WeatherDisplay:10.37,2013-05-06 14:46:00,
2013-05-06 10:52:00,59.7,49.9,30.20,NE,46,2.0,5.0,70,0.00,OVC,,0.00,WeatherDisplay:10.37,2013-05-06 14:52:00,
2013-05-06 11:00:00,60.3,50.8,30.20,NE,43,2.0,4.0,71,0.00,OVC,,0.00,WeatherDisplay:10.37,2013-05-06 15:00:00,
2013-05-06 11:05:00,60.5,50.7,30.20,NNE,28,1.0,4.0,70,0.00,OVC,,0.00,WeatherDisplay:10.37,2013-05-06 15:05:00,
2013-05-06 11:11:00,61.0,50.7,30.20,NE,37,1.0,5.0,69,0.00,OVC,,0.00,WeatherDisplay:10.37,2013-05-06 15:11:00,
2013-05-06 11:16:00,61.4,50.7,30.20,NNE,26,0.0,3.0,68,0.00,OVC,,0.00,WeatherDisplay:10.37,2013-05-06 15:16:00,
2013-05-06 11:21:00,61.9,51.2,30.19,North,10,2.0,6.0,68,0.00,OVC,,0.00,WeatherDisplay:10.37,2013-05-06 15:21:00,
2013-05-06 11:26:00,62.2,51.1,30.20,NE,34,1.0,3.0,67,0.00,OVC,,0.00,WeatherDisplay:10.37,2013-05-06 15:26:00,
2013-05-06 11:31:00,62.9,51.0,30.19,East,85,2.0,5.0,65,0.00,OVC,,0.00,WeatherDisplay:10.37,2013-05-06 15:31:00,
2013-05-06 11:36:00,63.4,51.0,30.19,ENE,59,1.0,3.0,64,0.00,OVC,,0.00,WeatherDisplay:10.37,2013-05-06 15:36:00,
2013-05-06 11:41:00,63.8,51.3,30.19,NE,40,3.0,6.0,64,0.00,OVC,,0.00,WeatherDisplay:10.37,2013-05-06 15:41:00,
2013-05-06 11:46:00,63.9,51.0,30.19,NE,38,2.0,6.0,63,0.00,OVC,,0.00,WeatherDisplay:10.37,2013-05-06 15:46:00,
2013-05-06 11:51:00,64.8,52.7,30.19,NNE,33,1.0,5.0,65,0.00,OVC,,0.00,WeatherDisplay:10.37,2013-05-06 15:51:00,
2013-05-06 11:56:00,65.7,53.1,30.19,NE,48,0.0,4.0,64,0.00,OVC,,0.00,WeatherDisplay:10.37,2013-05-06 15:56:00,
2013-05-06 12:01:00,66.2,52.8,30.19,ENE,67,2.0,6.0,62,0.00,OVC,,0.00,WeatherDisplay:10.37,2013-05-06 16:01:00,
2013-05-06 12:06:00,67.3,53.4,30.19,ENE,73,2.0,5.0,61,0.00,BKN,,0.00,WeatherDisplay:10.37,2013-05-06 16:06:00,
2013-05-06 12:11:00,68.2,53.3,30.18,ENE,58,2.0,3.0,59,0.00,BKN,,0.00,WeatherDisplay:10.37,2013-05-06 16:11:00,
2013-05-06 12:16:00,68.7,53.3,30.18,ENE,59,1.0,4.0,58,0.00,SCT,,0.00,WeatherDisplay:10.37,2013-05-06 16:16:00,
2013-05-06 12:21:00,68.4,52.6,30.18,NE,53,2.0,4.0,57,0.00,SCT,,0.00,WeatherDisplay:10.37,2013-05-06 16:21:00,
2013-05-06 12:26:00,68.2,52.4,30.18,NE,36,3.0,6.0,57,0.00,SCT,,0.00,WeatherDisplay:10.37,2013-05-06 16:26:00,
2013-05-06 12:31:00,68.2,52.4,30.18,NE,48,2.0,6.0,57,0.00,SCT,,0.00,WeatherDisplay:10.37,2013-05-06 16:31:00,
2013-05-06 12:40:00,68.0,52.2,30.17,NE,52,2.0,5.0,57,0.00,SCT,,0.00,WeatherDisplay:10.37,2013-05-06 16:40:00,
2013-05-06 12:45:00,68.0,52.2,30.17,NE,50,2.0,6.0,57,0.00,SCT,,0.00,WeatherDisplay:10.37,2013-05-06 16:45:00,
2013-05-06 12:50:00,68.2,52.4,30.17,ENE,70,3.0,5.0,57,0.00,SCT,,0.00,WeatherDisplay:10.37,2013-05-06 16:50:00,
2013-05-06 12:55:00,67.9,51.6,30.17,East,83,2.0,4.0,56,0.00,SCT,,0.00,WeatherDisplay:10.37,2013-05-06 16:55:00,
2013-05-06 13:00:00,67.5,52.2,30.17,ENE,72,1.0,6.0,58,0.00,SCT,,0.00,WeatherDisplay:10.37,2013-05-06 17:00:00,
2013-05-06 13:06:00,67.8,52.5,30.17,ENE,70,1.0,4.0,58,0.00,BKN,,0.00,WeatherDisplay:10.37,2013-05-06 17:06:00,
2013-05-06 13:11:00,68.4,52.6,30.16,East,93,1.0,4.0,57,0.00,BKN,,0.00,WeatherDisplay:10.37,2013-05-06 17:11:00,
2013-05-06 13:16:00,68.8,52.5,30.16,East,88,2.0,6.0,56,0.00,BKN,,0.00,WeatherDisplay:10.37,2013-05-06 17:16:00,
2013-05-06 13:21:00,69.8,52.9,30.16,East,89,2.0,6.0,55,0.00,BKN,,0.00,WeatherDisplay:10.37,2013-05-06 17:21:00,
2013-05-06 13:26:00,70.7,53.2,30.16,NE,39,5.0,7.0,54,0.00,BKN,,0.00,WeatherDisplay:10.37,2013-05-06 17:26:00,
2013-05-06 13:31:00,71.4,53.9,30.15,NNE,29,2.0,6.0,54,0.00,BKN,,0.00,WeatherDisplay:10.37,2013-05-06 17:31:00,
2013-05-06 13:36:00,72.1,53.0,30.15,ENE,58,1.0,6.0,51,0.00,BKN,,0.00,WeatherDisplay:10.37,2013-05-06 17:36:00,
2013-05-06 13:41:00,72.3,52.1,30.15,ENE,64,3.0,6.0,49,0.00,BKN,,0.00,WeatherDisplay:10.37,2013-05-06 17:41:00,
2013-05-06 13:46:00,72.3,53.2,30.15,NE,56,2.0,7.0,51,0.00,BKN,,0.00,WeatherDisplay:10.37,2013-05-06 17:46:00,
2013-05-06 13:51:00,73.3,53.0,30.15,NE,56,2.0,5.0,49,0.00,BKN,,0.00,WeatherDisplay:10.37,2013-05-06 17:51:00,
2013-05-06 13:56:00,73.6,52.7,30.15,SE,136,1.0,5.0,48,0.00,BKN,,0.00,WeatherDisplay:10.37,2013-05-06 17:56:00,
2013-05-06 14:01:00,73.4,52.5,30.14,SE,130,2.0,5.0,48,0.00,BKN,,0.00,WeatherDisplay:10.37,2013-05-06 18:01:00,
2013-05-06 14:06:00,74.1,53.2,30.15,East,79,2.0,4.0,48,0.00,CLR,,0.00,WeatherDisplay:10.37,2013-05-06 18:06:00,
2013-05-06 14:11:00,74.7,53.7,30.15,ENE,66,3.0,6.0,48,0.00,CLR,,0.00,WeatherDisplay:10.37,2013-05-06 18:11:00,
2013-05-06 14:16:00,75.4,53.7,30.15,East,98,3.0,6.0,47,0.00,CLR,,0.00,WeatherDisplay:10.37,2013-05-06 18:16:00,
2013-05-06 14:21:00,75.2,53.0,30.15,ESE,115,2.0,6.0,46,0.00,CLR,,0.00,WeatherDisplay:10.37,2013-05-06 18:21:00,
2013-05-06 14:26:00,75.4,53.2,30.14,East,84,2.0,5.0,46,0.00,CLR,,0.00,WeatherDisplay:10.37,2013-05-06 18:26:00,
2013-05-06 14:31:00,75.6,53.9,30.14,NE,44,3.0,5.0,47,0.00,CLR,,0.00,WeatherDisplay:10.37,2013-05-06 18:31:00,
2013-05-06 14:36:00,75.9,54.2,30.14,NE,36,3.0,7.0,47,0.00,CLR,,0.00,WeatherDisplay:10.37,2013-05-06 18:36:00,
2013-05-06 14:42:00,75.6,53.9,30.14,NE,47,2.0,6.0,47,0.00,CLR,,0.00,WeatherDisplay:10.37,2013-05-06 18:42:00,
2013-05-06 14:47:00,75.2,53.6,30.13,NNE,33,3.0,6.0,47,0.00,CLR,,0.00,WeatherDisplay:10.37,2013-05-06 18:47:00,
2013-05-06 14:52:00,74.4,53.4,30.13,ENE,69,3.0,6.0,48,0.00,CLR,,0.00,WeatherDisplay:10.37,2013-05-06 18:52:00,
2013-05-06 15:00:00,73.4,53.0,30.13,ESE,105,2.0,4.0,49,0.00,CLR,,0.00,WeatherDisplay:10.37,2013-05-06 19:00:00,
2013-05-06 15:05:00,72.9,53.7,30.13,East,87,3.0,6.0,51,0.00,CLR,,0.00,WeatherDisplay:10.37,2013-05-06 19:05:00,
2013-05-06 15:10:00,72.6,53.4,30.12,ESE,103,1.0,6.0,51,0.00,CLR,,0.00,WeatherDisplay:10.37,2013-05-06 19:10:00,
2013-05-06 15:15:00,72.3,53.7,30.12,East,100,1.0,6.0,52,0.00,CLR,,0.00,WeatherDisplay:10.37,2013-05-06 19:15:00,
2013-05-06 15:20:00,71.9,53.3,30.12,SSE,159,1.0,6.0,52,0.00,CLR,,0.00,WeatherDisplay:10.37,2013-05-06 19:20:00,
2013-05-06 15:26:00,71.6,53.6,30.12,South,176,2.0,4.0,53,0.00,CLR,,0.00,WeatherDisplay:10.37,2013-05-06 19:26:00,
2013-05-06 15:31:00,71.7,53.6,30.11,SE,124,2.0,5.0,53,0.00,CLR,,0.00,WeatherDisplay:10.37,2013-05-06 19:31:00,
2013-05-06 15:36:00,71.6,53.6,30.11,East,87,2.0,6.0,53,0.00,CLR,,0.00,WeatherDisplay:10.37,2013-05-06 19:36:00,
2013-05-06 15:41:00,71.6,54.1,30.11,East,79,2.0,6.0,54,0.00,CLR,,0.00,WeatherDisplay:10.37,2013-05-06 19:41:00,
2013-05-06 15:46:00,71.4,54.4,30.11,East,95,1.0,5.0,55,0.00,CLR,,0.00,WeatherDisplay:10.37,2013-05-06 19:46:00,
2013-05-06 15:51:00,71.4,54.4,30.11,ENE,65,3.0,6.0,55,0.00,CLR,,0.00,WeatherDisplay:10.37,2013-05-06 19:51:00,
2013-05-06 15:56:00,71.8,54.2,30.11,ENE,57,2.0,5.0,54,0.00,CLR,,0.00,WeatherDisplay:10.37,2013-05-06 19:56:00,
2013-05-06 16:01:00,72.0,54.4,30.11,ENE,70,1.0,5.0,54,0.00,CLR,,0.00,WeatherDisplay:10.37,2013-05-06 20:01:00,
2013-05-06 16:06:00,72.0,54.9,30.11,East,98,2.0,5.0,55,0.00,CLR,,0.00,WeatherDisplay:10.37,2013-05-06 20:06:00,
2013-05-06 16:11:00,72.3,55.2,30.11,East,90,3.0,5.0,55,0.00,CLR,,0.00,WeatherDisplay:10.37,2013-05-06 20:11:00,
2013-05-06 16:16:00,72.3,54.7,30.10,East,93,3.0,8.0,54,0.00,CLR,,0.00,WeatherDisplay:10.37,2013-05-06 20:16:00,
2013-05-06 16:21:00,71.2,54.2,30.10,East,83,2.0,5.0,55,0.00,CLR,,0.00,WeatherDisplay:10.37,2013-05-06 20:21:00,
2013-05-06 16:26:00,71.2,54.7,30.10,East,99,2.0,6.0,56,0.00,CLR,,0.00,WeatherDisplay:10.37,2013-05-06 20:26:00,
2013-05-06 16:31:00,70.9,53.9,30.10,East,97,3.0,6.0,55,0.00,CLR,,0.00,WeatherDisplay:10.37,2013-05-06 20:31:00,
2013-05-06 16:36:00,70.3,54.3,30.10,ENE,65,2.0,6.0,57,0.00,CLR,,0.00,WeatherDisplay:10.37,2013-05-06 20:36:00,
2013-05-06 16:41:00,69.8,53.9,30.10,NE,40,2.0,8.0,57,0.00,CLR,,0.00,WeatherDisplay:10.37,2013-05-06 20:41:00,
2013-05-06 16:46:00,69.8,54.4,30.10,NE,55,1.0,6.0,58,0.00,CLR,,0.00,WeatherDisplay:10.37,2013-05-06 20:46:00,
2013-05-06 16:51:00,69.8,54.4,30.10,ENE,77,2.0,5.0,58,0.00,CLR,,0.00,WeatherDisplay:10.37,2013-05-06 20:51:00,
2013-05-06 17:00:00,69.3,54.4,30.10,East,79,2.0,7.0,59,0.00,CLR,,0.00,WeatherDisplay:10.37,2013-05-06 21:00:00,
2013-05-06 17:05:00,68.6,54.2,30.10,East,94,2.0,7.0,60,0.00,CLR,,0.00,WeatherDisplay:10.37,2013-05-06 21:05:00,
2013-05-06 17:10:00,68.0,54.9,30.10,East,89,3.0,6.0,63,0.00,CLR,,0.00,WeatherDisplay:10.37,2013-05-06 21:10:00,
2013-05-06 17:15:00,67.8,55.2,30.10,East,90,2.0,6.0,64,0.00,CLR,,0.00,WeatherDisplay:10.37,2013-05-06 21:15:00,
2013-05-06 17:20:00,67.6,55.0,30.10,East,89,2.0,5.0,64,0.00,CLR,,0.00,WeatherDisplay:10.37,2013-05-06 21:20:00,
2013-05-06 17:25:00,67.6,55.0,30.11,ENE,64,1.0,4.0,64,0.00,CLR,,0.00,WeatherDisplay:10.37,2013-05-06 21:25:00,
2013-05-06 17:30:00,67.8,55.2,30.11,ENE,68,2.0,4.0,64,0.00,CLR,,0.00,WeatherDisplay:10.37,2013-05-06 21:30:00,
2013-05-06 17:35:00,68.1,55.0,30.11,ENE,60,2.0,6.0,63,0.00,CLR,,0.00,WeatherDisplay:10.37,2013-05-06 21:35:00,
2013-05-06 17:41:00,68.2,54.7,30.10,ENE,73,1.0,5.0,62,0.00,CLR,,0.00,WeatherDisplay:10.37,2013-05-06 21:41:00,
2013-05-06 17:46:00,68.0,54.5,30.11,SE,138,2.0,5.0,62,0.00,CLR,,0.00,WeatherDisplay:10.37,2013-05-06 21:46:00,
2013-05-06 17:51:00,67.8,55.2,30.11,East,95,1.0,5.0,64,0.00,CLR,,0.00,WeatherDisplay:10.37,2013-05-06 21:51:00,
2013-05-06 17:56:00,67.7,54.6,30.11,ENE,72,2.0,6.0,63,0.00,CLR,,0.00,WeatherDisplay:10.37,2013-05-06 21:56:00,
2013-05-06 18:01:00,67.2,54.6,30.11,East,84,1.0,5.0,64,0.00,CLR,,0.00,WeatherDisplay:10.37,2013-05-06 22:01:00,
2013-05-06 18:06:00,67.1,54.5,30.10,ENE,78,2.0,4.0,64,0.00,CLR,,0.00,WeatherDisplay:10.37,2013-05-06 22:06:00,
2013-05-06 18:11:00,66.6,54.0,30.10,ENE,73,1.0,6.0,64,0.00,CLR,,0.00,WeatherDisplay:10.37,2013-05-06 22:11:00,
2013-05-06 18:16:00,66.5,54.0,30.10,East,99,1.0,4.0,64,0.00,CLR,,0.00,WeatherDisplay:10.37,2013-05-06 22:16:00,
2013-05-06 18:26:00,66.4,53.8,30.10,East,88,1.0,5.0,64,0.00,CLR,,0.00,WeatherDisplay:10.37,2013-05-06 22:26:00,
2013-05-06 18:31:00,66.0,53.9,30.10,East,87,2.0,7.0,65,0.00,CLR,,0.00,WeatherDisplay:10.37,2013-05-06 22:31:00,
2013-05-06 18:40:00,65.3,53.2,30.10,East,93,1.0,2.0,65,0.00,CLR,,0.00,WeatherDisplay:10.37,2013-05-06 22:40:00,
2013-05-06 18:45:00,64.9,53.3,30.11,ESE,107,1.0,3.0,66,0.00,CLR,,0.00,WeatherDisplay:10.37,2013-05-06 22:45:00,
2013-05-06 18:50:00,64.6,53.0,30.10,East,89,1.0,4.0,66,0.00,CLR,,0.00,WeatherDisplay:10.37,2013-05-06 22:50:00,
2013-05-06 18:55:00,64.4,52.8,30.11,ENE,74,1.0,3.0,66,0.00,CLR,,0.00,WeatherDisplay:10.37,2013-05-06 22:55:00,
2013-05-06 19:00:00,64.2,52.2,30.10,East,97,2.0,5.0,65,0.00,CLR,,0.00,WeatherDisplay:10.37,2013-05-06 23:00:00,
2013-05-06 19:05:00,63.9,52.3,30.11,East,90,2.0,4.0,66,0.00,CLR,,0.00,WeatherDisplay:10.37,2013-05-06 23:05:00,
2013-05-06 19:10:00,63.7,52.1,30.11,East,83,1.0,2.0,66,0.00,CLR,,0.00,WeatherDisplay:10.37,2013-05-06 23:10:00,
2013-05-06 19:16:00,63.5,51.9,30.11,ESE,111,1.0,3.0,66,0.00,CLR,,0.00,WeatherDisplay:10.37,2013-05-06 23:16:00,
2013-05-06 19:21:00,63.0,51.5,30.11,ESE,114,1.0,3.0,66,0.00,CLR,,0.00,WeatherDisplay:10.37,2013-05-06 23:21:00,
2013-05-06 19:26:00,62.8,51.2,30.11,East,97,0.0,2.0,66,0.00,CLR,,0.00,WeatherDisplay:10.37,2013-05-06 23:26:00,
2013-05-06 19:31:00,62.6,51.5,30.11,East,94,1.0,3.0,67,0.00,CLR,,0.00,WeatherDisplay:10.37,2013-05-06 23:31:00,
2013-05-06 19:36:00,62.4,51.7,30.11,East,91,1.0,3.0,68,0.00,CLR,,0.00,WeatherDisplay:10.37,2013-05-06 23:36:00,
2013-05-06 19:41:00,62.2,51.5,30.11,East,86,1.0,2.0,68,0.00,CLR,,0.00,WeatherDisplay:10.37,2013-05-06 23:41:00,
2013-05-06 19:46:00,61.9,51.6,30.11,East,84,1.0,2.0,69,0.00,CLR,,0.00,WeatherDisplay:10.37,2013-05-06 23:46:00,
2013-05-06 19:51:00,61.7,51.4,30.11,East,83,1.0,3.0,69,0.00,CLR,,0.00,WeatherDisplay:10.37,2013-05-06 23:51:00,
2013-05-06 19:56:00,61.4,51.1,30.12,East,97,1.0,2.0,69,0.00,CLR,,0.00,WeatherDisplay:10.37,2013-05-06 23:56:00,
2013-05-06 20:05:00,61.0,51.1,30.12,East,90,0.0,2.0,70,0.00,CLR,,0.00,WeatherDisplay:10.37,2013-05-07 00:05:00,
2013-05-06 20:10:00,60.6,51.5,30.12,East,90,0.0,1.0,72,0.00,CLR,,0.00,WeatherDisplay:10.37,2013-05-07 00:10:00,
2013-05-06 20:15:00,60.4,51.7,30.12,East,90,0.0,2.0,73,0.00,CLR,,0.00,WeatherDisplay:10.37,2013-05-07 00:15:00,
2013-05-06 20:20:00,60.3,51.6,30.12,East,90,0.0,2.0,73,0.00,CLR,,0.00,WeatherDisplay:10.37,2013-05-07 00:20:00,
2013-05-06 20:25:00,60.1,51.4,30.12,East,90,0.0,1.0,73,0.00,CLR,,0.00,WeatherDisplay:10.37,2013-05-07 00:25:00,
2013-05-06 20:30:00,59.9,51.2,30.12,East,90,0.0,2.0,73,0.00,CLR,,0.00,WeatherDisplay:10.37,2013-05-07 00:30:00,
2013-05-06 20:35:00,59.7,51.4,30.12,East,90,0.0,2.0,74,0.00,CLR,,0.00,WeatherDisplay:10.37,2013-05-07 00:35:00,
2013-05-06 20:41:00,59.4,51.1,30.12,East,90,0.0,1.0,74,0.00,CLR,,0.00,WeatherDisplay:10.37,2013-05-07 00:41:00,
2013-05-06 20:46:00,59.2,50.9,30.12,East,90,0.0,2.0,74,0.00,CLR,,0.00,WeatherDisplay:10.37,2013-05-07 00:46:00,
2013-05-06 20:51:00,59.0,51.1,30.12,East,90,1.0,2.0,75,0.00,CLR,,0.00,WeatherDisplay:10.37,2013-05-07 00:51:00,
2013-05-06 20:56:00,59.0,51.1,30.13,East,90,0.0,2.0,75,0.00,CLR,,0.00,WeatherDisplay:10.37,2013-05-07 00:56:00,
2013-05-06 21:01:00,58.8,51.3,30.13,East,90,0.0,2.0,76,0.00,CLR,,0.00,WeatherDisplay:10.37,2013-05-07 01:01:00,
2013-05-06 21:06:00,58.7,51.2,30.13,East,90,0.0,2.0,76,0.00,CLR,,0.00,WeatherDisplay:10.37,2013-05-07 01:06:00,
2013-05-06 21:11:00,58.6,51.1,30.13,East,90,0.0,2.0,76,0.00,CLR,,0.00,WeatherDisplay:10.37,2013-05-07 01:11:00,
2013-05-06 21:16:00,58.5,51.3,30.13,East,90,1.0,2.0,77,0.00,CLR,,0.00,WeatherDisplay:10.37,2013-05-07 01:16:00,
2013-05-06 21:21:00,58.3,51.1,30.13,East,90,1.0,2.0,77,0.00,CLR,,0.00,WeatherDisplay:10.37,2013-05-07 01:21:00,
2013-05-06 21:26:00,58.1,50.9,30.13,East,90,0.0,2.0,77,0.00,CLR,,0.00,WeatherDisplay:10.37,2013-05-07 01:26:00,
2013-05-06 21:31:00,57.9,50.8,30.13,East,90,0.0,2.0,77,0.00,CLR,,0.00,WeatherDisplay:10.37,2013-05-07 01:31:00,
2013-05-06 21:36:00,57.7,50.6,30.13,East,90,0.0,2.0,77,0.00,CLR,,0.00,WeatherDisplay:10.37,2013-05-07 01:36:00,
2013-05-06 21:41:00,57.5,50.7,30.13,East,90,0.0,2.0,78,0.00,CLR,,0.00,WeatherDisplay:10.37,2013-05-07 01:41:00,
2013-05-06 21:46:00,57.2,50.4,30.14,East,90,1.0,2.0,78,0.00,CLR,,0.00,WeatherDisplay:10.37,2013-05-07 01:46:00,
2013-05-06 21:51:00,57.2,50.4,30.13,East,90,0.0,2.0,78,0.00,CLR,,0.00,WeatherDisplay:10.37,2013-05-07 01:51:00,
2013-05-06 21:56:00,57.0,50.9,30.13,East,90,0.0,2.0,80,0.00,CLR,,0.00,WeatherDisplay:10.37,2013-05-07 01:56:00,
2013-05-06 22:01:00,56.8,50.7,30.13,East,93,0.0,2.0,80,0.00,CLR,,0.00,WeatherDisplay:10.37,2013-05-07 02:01:00,
2013-05-06 22:06:00,56.5,50.4,30.13,East,91,0.0,2.0,80,0.00,CLR,,0.00,WeatherDisplay:10.37,2013-05-07 02:06:00,
2013-05-06 22:11:00,56.5,50.7,30.13,East,90,1.0,2.0,81,0.00,CLR,,0.00,WeatherDisplay:10.37,2013-05-07 02:11:00,
2013-05-06 22:16:00,56.3,50.5,30.13,East,90,1.0,2.0,81,0.00,CLR,,0.00,WeatherDisplay:10.37,2013-05-07 02:16:00,
2013-05-06 22:21:00,56.3,50.5,30.13,East,90,1.0,2.0,81,0.00,CLR,,0.00,WeatherDisplay:10.37,2013-05-07 02:21:00,
2013-05-06 22:26:00,56.1,50.7,30.13,East,87,0.0,2.0,82,0.00,CLR,,0.00,WeatherDisplay:10.37,2013-05-07 02:26:00,
2013-05-06 22:31:00,55.9,50.5,30.13,East,87,1.0,2.0,82,0.00,CLR,,0.00,WeatherDisplay:10.37,2013-05-07 02:31:00,
2013-05-06 22:41:00,55.8,50.7,30.13,ENE,65,1.0,2.0,83,0.00,CLR,,0.00,WeatherDisplay:10.37,2013-05-07 02:41:00,
2013-05-06 22:46:00,55.6,50.5,30.12,East,82,1.0,3.0,83,0.00,CLR,,0.00,WeatherDisplay:10.37,2013-05-07 02:46:00,
2013-05-06 22:56:00,55.2,50.1,30.12,East,88,1.0,2.0,83,0.00,CLR,,0.00,WeatherDisplay:10.37,2013-05-07 02:56:00,
2013-05-06 23:01:00,55.0,50.3,30.12,ENE,71,1.0,5.0,84,0.00,CLR,,0.00,WeatherDisplay:10.37,2013-05-07 03:01:00,
2013-05-06 23:06:00,54.9,50.1,30.12,ENE,59,2.0,5.0,84,0.00,CLR,,0.00,WeatherDisplay:10.37,2013-05-07 03:06:00,
2013-05-06 23:11:00,54.9,50.4,30.12,ENE,66,2.0,4.0,85,0.00,CLR,,0.00,WeatherDisplay:10.37,2013-05-07 03:11:00,
2013-05-06 23:16:00,54.7,50.3,30.12,ENE,60,1.0,5.0,85,0.00,CLR,,0.00,WeatherDisplay:10.37,2013-05-07 03:16:00,
2013-05-06 23:21:00,54.7,50.3,30.12,ENE,63,1.0,3.0,85,0.00,CLR,,0.00,WeatherDisplay:10.37,2013-05-07 03:21:00,
2013-05-06 23:26:00,54.5,50.4,30.12,ENE,66,1.0,2.0,86,0.00,CLR,,0.00,WeatherDisplay:10.37,2013-05-07 03:26:00,
2013-05-06 23:31:00,54.5,50.4,30.12,ENE,61,1.0,2.0,86,0.00,CLR,,0.00,WeatherDisplay:10.37,2013-05-07 03:31:00,
2013-05-06 23:41:00,54.3,50.2,30.12,East,90,0.0,2.0,86,0.00,CLR,,0.00,WeatherDisplay:10.37,2013-05-07 03:41:00,
2013-05-06 23:46:00,54.0,50.2,30.12,East,90,0.0,1.0,87,0.00,CLR,,0.00,WeatherDisplay:10.37,2013-05-07 03:46:00,
2013-05-06 23:51:00,54.0,50.2,30.12,East,90,0.0,1.0,87,0.00,CLR,,0.00,WeatherDisplay:10.37,2013-05-07 03:51:00,
2013-05-06 23:56:00,53.8,50.0,30.12,ESE,113,0.0,1.0,87,0.00,CLR,,0.00,WeatherDisplay:10.37,2013-05-07 03:56:00,